sat.trackr.live / text

‹ back to catalog

STARLINK-31696

NORAD 59435 · 2024-065Q

PAYLOAD ACTIVE UNKNOWN

§ Identity

Operator
Country
US
Launch date
2024-04-07
Launch site
AFWTR
Launch vehicle
Mass (kg)
RCS (m²)

Purposes: comms

External: N2YO · Heavens-Above · Gunter

§ Orbital elements

Epoch: 2026-09-21T18:03:18.027072Z

Period
93.85 min
Inclination
53.1594°
Eccentricity
0.0001291
Mean motion
15.34367978 rev/d
Perigee alt
461.9 km
Apogee alt
463.7 km
Semi-major
6,840.9 km
B*
6.4057e-5
RAAN
87.7104°
Arg perigee
88.2106°
Mean anomaly
271.9044°
Rev number
13,899

§ Raw data

STARLINK-316961 59435U 24065Q   26264.75229198  .00001786  00000+0  64057-4 0  99932 59435  53.1594  87.7104 0001291  88.2106 271.9044 15.34367978138990

JSON: /api/v1/satellites/59435 · /tle

For live sub-satellite position, see the globe view (requires WebGL).

§ Visibility from observer

Set your observer location to see the next 7 days of passes ≥ 10°. The values pass through the URL so the page stays shareable.

No JS? Fill the form by hand. The geolocation button needs JavaScript.